Flag for Finland Weather past 2 weeks in Mariehamn, Finland

Now
75 °F

Passing clouds.


Feels Like: 76 °F
Forecast: 67 / 80 °F
Wind: 5 mph from South

Location: Mariehamn / Aland Island

Current Time: Jul 28, 2014 at 12:03:52 PM

Latest Report: Jul 28, 2014 at 11:20 AM


Visibility: N/A

Pressure: 29.95 "Hg

Humidity: 78%

Dew point: 68 °F

Location of MariehamnLocation

Historic Weather in Mariehamn — Graph

°F

Mariehamn temperature yesterday

Maximum temperature yesterday: 81 °F (at 2:20 PM)
Minimum temperature yesterday: 59 °F (at 3:50 AM)
Average temperature yesterday: 72 °F

Past Weeks' High & Low Weather Summary

 TemperatureHumidityPressure
High86 °F (Jul 25, 3:20 PM)100% (Jul 14, 2:20 AM)30.30 "Hg (Jul 14, 2:20 AM)
Low54 °F (Jul 24, 5:20 AM)25% (Jul 23, 6:50 PM)29.74 "Hg (Jul 15, 6:20 AM)
Average68 °F78%30.05 "Hg
* Reported Jul 13 10:20 AM — Jul 28 10:50 AM, Mariehamn, Weather by CustomWeather, © 2014

Note: Actual official high and low records may vary slightly from our data, if they occured in-between our weather recording intervals... More about our weather records

Advertising

Mariehamn weather history for previous 24 hours

 ConditionsComfort  
Time TempWeatherWind HumidityBarometerVisibility
10:50 AM
Jul 28
75 °FPassing clouds.6 mph83%29.95 "HgN/A
10:20 AM73 °FSunny.3 mph83%29.95 "Hg10 mi
9:50 AM72 °FSunny.1 mph88%29.95 "Hg10 mi
9:20 AM72 °FPartly sunny.2 mph88%29.95 "Hg6 mi
8:50 AM70 °FPartly sunny.1 mph94%29.95 "Hg6 mi
8:20 AM68 °FPartly sunny.1 mph100%29.98 "Hg6 mi
7:50 AM68 °FPartly sunny.1 mph94%29.98 "Hg6 mi
7:20 AM66 °FRain. Partly sunny.1 mph100%29.98 "Hg4 mi
6:50 AM66 °FRain. Partly sunny.1 mph100%29.98 "Hg3 mi
6:20 AM66 °FRain. Fog.2 mph100%29.98 "Hg4 mi
5:20 AM63 °FPartly cloudy.No wind100%29.98 "Hg0 mi
4:50 AM61 °FDense fog.No wind100%29.98 "Hg0 mi
4:20 AM63 °FLight fog.1 mph100%29.95 "HgN/A
3:50 AM64 °FClear.No wind100%29.98 "Hg10 mi
3:20 AM70 °FClear.5 mph94%29.98 "Hg10 mi
2:50 AM70 °FClear.5 mph94%29.98 "Hg10 mi
2:20 AM70 °FClear.6 mph100%30.01 "Hg10 mi
1:50 AM68 °FClear.2 mph88%30.01 "Hg10 mi
1:20 AM70 °FClear.2 mph94%30.01 "Hg10 mi
12:50 AM70 °FClear.2 mph94%30.01 "Hg10 mi
12:20 AM72 °FClear.3 mph88%30.01 "Hg10 mi
11:50 PM
Jul 27
73 °FClear.5 mph83%30.01 "Hg10 mi
11:20 PM73 °FSunny.5 mph83%30.01 "Hg10 mi
10:50 PM73 °FPassing clouds.5 mph83%30.01 "HgN/A
10:20 PM73 °FSunny.6 mph78%30.01 "Hg10 mi
9:50 PM73 °FSunny.3 mph78%30.01 "Hg10 mi
9:20 PM75 °FPassing clouds.6 mph74%29.98 "HgN/A
8:50 PM75 °FPassing clouds.5 mph74%29.98 "HgN/A
8:20 PM73 °FSunny.2 mph74%29.98 "Hg10 mi
7:50 PM75 °FSunny.2 mph69%29.98 "Hg10 mi
7:20 PM75 °FSunny.3 mph69%30.01 "Hg10 mi
6:50 PM75 °FSunny.2 mph69%30.01 "Hg10 mi
6:20 PM75 °FSunny.2 mph69%30.01 "Hg10 mi
5:20 PM75 °FPartly sunny.9 mph89%30.04 "HgN/A
4:50 PM75 °FSunny.12 mph89%30.04 "Hg10 mi
4:20 PM77 °FPassing clouds.9 mph74%30.04 "HgN/A
4:06 PM77 °FSunny.10 mph74%30.04 "Hg10 mi
3:50 PM77 °FPassing clouds.10 mph69%30.04 "HgN/A
3:20 PM79 °FSunny.13 mph65%30.04 "Hg10 mi
2:50 PM79 °FPassing clouds.12 mph65%30.04 "HgN/A
2:20 PM81 °FPassing clouds.10 mph62%30.04 "HgN/A
1:50 PM77 °FPassing clouds.12 mph69%30.07 "HgN/A
1:20 PM77 °FPassing clouds.10 mph74%30.07 "HgN/A
12:50 PM79 °FPassing clouds.9 mph61%30.07 "HgN/A
12:20 PM79 °FPassing clouds.9 mph65%30.07 "HgN/A
Weather by CustomWeather, © 2014

See weather overviewHow to use our weather pages